Regional Weather Roundup
Issued by NWS

Home | Current Version | Previous Version | Text Only | Print | Product List | Glossary On
Versions: 1 2 3 4 5 6 7 8 9 10 11 12 13 14 15 16 17 18 19 20 21 22 23 24 25 26 27 28 29 30 31 32 33 34 35 36 37 38 39 40 41 42 43 44 45 46 47 48 49 50
000
ASUS43 KDTX 160610
RWRMI
MICHIGAN HOURLY REGIONAL WEATHER ROUNDUP
NATIONAL WEATHER SERVICE DETROIT/PONTIAC MI
200 AM EDT WED APR 16 2014

NOTE: "FAIR" INDICATES FEW OR NO CLOUDS BELOW 12,000 FEET WITH NO
SIGNIFICANT WEATHER AND/OR OBSTRUCTION TO VISIBILITY.

MIZ047>049-052>055-059>063-066>070-074>076-081>083-160700-
SOUTHEAST LOWER MICHIGAN

CITY           SKY/WX    TMP DP  RH WIND       PRES   REMARKS
ADRIAN           N/A     23  13  65 CALM      30.26S
6HR MIN TEMP:  23; 6HR MAX TEMP:  31;

ALMA             N/A     25  16  69 CALM      30.25R
ANN ARBOR        N/A     19  15  84 CALM      30.25S
BAD AXE          N/A     21  18  90 CALM      30.24R
6HR MIN TEMP:  20; 6HR MAX TEMP:  28;

DETROIT CITY     N/A     26  15  63 CALM      30.26S
6HR MIN TEMP:  26; 6HR MAX TEMP:  32;

DETROIT          N/A     27  13  55 CALM      30.26S
6HR MIN TEMP:  27; 6HR MAX TEMP:  31;

FLINT            N/A     21  16  81 SW3       30.24F
6HR MIN TEMP:  20; 6HR MAX TEMP:  31;

GROSSE ILE       N/A     27  19  74 CALM      30.25S
HILLSDALE        N/A     21  15  76 CALM      30.23S
6HR MIN TEMP:  21; 6HR MAX TEMP:  30;

HOWELL           N/A     22  13  66 CALM      30.23S
6HR MIN TEMP:  22; 6HR MAX TEMP:  29;


CITY           SKY/WX    TMP DP  RH WIND       PRES   REMARKS
JACKSON          N/A     21  13  71 CALM      30.24S
6HR MIN TEMP:  21; 6HR MAX TEMP:  30;

LAMBERTVILLE     N/A     27  18  69 CALM      30.27R
LANSING          N/A     24  13  62 CALM      30.25S
6HR MIN TEMP:  24; 6HR MAX TEMP:  30;

LAPEER         NOT AVBL
MASON            N/A     23  17  78 CALM      30.24S
MONROE           N/A     25  21  86 CALM      30.25S
MT. CLEMENS      N/A     24  13  62 S1        30.24S
6HR MIN TEMP:  22; 6HR MAX TEMP:  31;

PONTIAC          N/A     21  13  71 CALM      30.22S
6HR MIN TEMP:  21; 6HR MAX TEMP:  29;

PORT HOPE        N/A     23  15  71 SW3       30.22S
6HR MIN TEMP:  23; 6HR MAX TEMP:  29;

PORT HURON       N/A     19  18  93 CALM      30.26S
TRI CITIES       N/A     25  14  63 W6        30.25R
6HR MIN TEMP:  25; 6HR MAX TEMP:  31;

YPSILANTI        N/A     25  12  58 CALM      30.26S
6HR MIN TEMP:  25; 6HR MAX TEMP:  33;

$$
MIZ043>046-050>051-056>058-064>065-071>073-077>080-160700-
SOUTHWEST LOWER MICHIGAN

CITY           SKY/WX    TMP DP  RH WIND       PRES   REMARKS
BATTLE CREEK     N/A     24  14  65 CALM      30.24S
6HR MIN TEMP:  22; 6HR MAX TEMP:  30;

BENTON HARBOR    N/A     24  15  68 E5        30.25R
6HR MIN TEMP:  23; 6HR MAX TEMP:  29;

BIG RAPIDS       N/A     24  16  72 CALM      30.21S
6HR MIN TEMP:  24; 6HR MAX TEMP:  29;

COLDWATER        N/A     23  18  80 CALM      30.24S
HOLLAND          N/A     25  16  68 SE5       30.25R
6HR MIN TEMP:  25; 6HR MAX TEMP:  31;

GRAND RAPIDS     N/A     25  16  68 CALM      30.25R
6HR MIN TEMP:  25; 6HR MAX TEMP:  32;

KALAMAZOO        N/A     25  15  66 CALM      30.24S
6HR MIN TEMP:  23; 6HR MAX TEMP:  30;

MARSHALL         N/A     21  14  73 S8        30.24R
MUSKEGON         N/A     24  16  71 SE3       30.25R
6HR MIN TEMP:  24; 6HR MAX TEMP:  29;

$$
MIZ016>042-160700-
NORTHERN LOWER MICHIGAN

CITY           SKY/WX    TMP DP  RH WIND       PRES   REMARKS
ALPENA         CLOUDY    22  16  78 CALM      30.23R
6HR MIN TEMP:  15; 6HR MAX TEMP:  24;

BEAVER ISLAND    N/A    N/A N/A N/A CALM      30.22S
BELLAIRE         N/A     26  21  83 CALM      30.23R
6HR MIN TEMP:  25; 6HR MAX TEMP:  28;

CADILLAC         N/A     20  15  82 SW5       30.17S
CHARLEVOIX       N/A     17  16  95 CALM      30.25S
6HR MIN TEMP:  17; 6HR MAX TEMP:  27;

FRANKFORT        N/A     28  16  59 CALM      30.21R
GAYLORD        CLOUDY    17  15  92 CALM      30.18R
6HR MIN TEMP:  16; 6HR MAX TEMP:  23; 6HR PCP:  0.01;

GRAYLING       MOCLDY    17  15  90 CALM      30.20R
6HR MIN TEMP:  13; 6HR MAX TEMP:  26;

HARBOR SPRINGS   N/A     19  17  92 CALM      30.22R
HOUGHTON LAKE    N/A     22  15  75 W5        30.20R
6HR MIN TEMP:  21; 6HR MAX TEMP:  26;

MANISTEE         N/A     25  18  74 S3        30.23R
OSCODA           N/A     15  11  84 CALM      30.23S
PELLSTON       FOG        8   5  87 CALM      30.23R VSB 1/4
6HR MIN TEMP:   8; 6HR MAX TEMP:  23; 6HR PCP:  0.02;

TRAVERSE CITY  MOCLDY    24  21  88 CALM      30.21S
6HR MIN TEMP:  24; 6HR MAX TEMP:  29; 6HR PCP: TRACE;

$$
MIZ007>008-015-160700-
EASTERN UPPER MICHIGAN

CITY           SKY/WX    TMP DP  RH WIND       PRES   REMARKS
KINROSS          N/A      9   9 100 CALM      30.21R
6HR MIN TEMP:   9; 6HR MAX TEMP:  19;

MACKINAC ISLAN   N/A     15  11  85 CALM      30.22R
6HR MIN TEMP:  15; 6HR MAX TEMP:  24;

NEWBERRY         N/A      3   1  90 SW5       30.20R
6HR MIN TEMP:   1; 6HR MAX TEMP:  18;

S. S. MARIE      N/A     14   8  77 CALM      30.20R
6HR MIN TEMP:  13; 6HR MAX TEMP:  19;

$$
MIZ004>006-011>014-085-160700-
CENTRAL UPPER MICHIGAN

CITY           SKY/WX    TMP DP  RH WIND       PRES   REMARKS
MANISTIQUE       N/A      9   6  88 CALM      30.21R
ESCANABA         N/A     12  10  92 CALM      30.21R
6HR MIN TEMP:  12; 6HR MAX TEMP:  25; 6HR PCP:  0.01;

MENOMINEE        N/A     21  18  86 CALM      30.19R
6HR MIN TEMP:  21; 6HR MAX TEMP:  30;

SAWYER-GWINN     N/A      4   1  86 CALM      30.17R
$$
MIZ001>003-009>011-084-160700-
WESTERN UPPER MICHIGAN

CITY           SKY/WX    TMP DP  RH WIND       PRES   REMARKS
IRON MOUNTAIN    N/A     10   5  80 N3        30.16R
6HR MIN TEMP:  10; 6HR MAX TEMP:  27;

HOUGHTON         N/A     13  -2  51 CALM      30.13R
6HR MIN TEMP:  11; 6HR MAX TEMP:  22;

COPPER HARBOR    N/A     20   4  50 CALM      30.16R
6HR MIN TEMP:  19; 6HR MAX TEMP:  24;

IRONWOOD         N/A     14   7  73 CALM      30.10S
6HR MIN TEMP:  14; 6HR MAX TEMP:  27;

$$

ABBREVIATIONS USED IN REMARKS
   TC - TEMPERATURE IN CELSIUS
  WCI - WIND CHILL INDEX
   HX - HEAT INDEX
  VSB - VISIBILITY




USA.gov is the U.S. government's official web portal to all federal, state and local government web resources and services.